Regional Weather Roundup
Issued by NWS

Home | Current Version | Previous Version | Graphics & Text | Print | Product List | Glossary On
Versions: 1 2 3 4 5 6 7 8 9 10 11 12 13 14 15 16 17 18 19 20 21 22 23 24 25 26 27 28 29 30 31 32 33 34 35 36 37 38 39 40 41 42 43 44 45 46 47 48 49 50
000
ASUS43 KOAX 290010
RWRNE

WEATHER ROUNDUP FOR NEBRASKA
NATIONAL WEATHER SERVICE OMAHA NE
700 PM CDT TUE JUL 28 2015

NOTES: SATELLITE DATA IS BEING USED TO AUGMENT CLOUD COVER ABOVE
       12000 FEET.
       "FAIR" INDICATES FEW OR NO CLOUDS BELOW 12,000 FEET WITH NO
       SIGNIFICANT WEATHER AND/OR OBSTRUCTIONS TO VISIBILITY.

  * THESE STATIONS DO NOT REPORT WEATHER SUCH AS RAIN...SNOW OR FOG.

NEZ001>004-019>022-054>056-290100-
NEBRASKA PANHANDLE

CITY           SKY/WX    TMP DP  RH WIND       PRES   REMARKS
SCOTTSBLUFF    SUNNY     83  31  15 NW5       30.10S
6HR MIN TEMP:  76; 6HR MAX TEMP:  84;

ALLIANCE       SUNNY     80  31  16 NW10      30.09S
6HR MIN TEMP:  76; 6HR MAX TEMP:  82;

CHADRON        SUNNY     80  29  15 NW16G24   30.06F
6HR MIN TEMP:  74; 6HR MAX TEMP:  82;

KIMBALL        SUNNY     79  24  13 N13       30.14S
SIDNEY         SUNNY     81  32  17 N6        30.14S
6HR MIN TEMP:  78; 6HR MAX TEMP:  83;

$$

NEZ057>060-069>072-079>082-290100-
SOUTHWEST NEBRASKA

CITY           SKY/WX    TMP DP  RH WIND       PRES   REMARKS
NORTH PLATTE   SUNNY     81  46  29 NE10      30.05S
6HR MIN TEMP:  78; 6HR MAX TEMP:  84;

IMPERIAL       SUNNY     83  42  23 N12       30.09R
6HR MIN TEMP:  80; 6HR MAX TEMP:  86;

LEXINGTON      SUNNY     83  53  35 N6        30.03S
MCCOOK         SUNNY     86  48  26 NE13      30.03S
6HR MIN TEMP:  81; 6HR MAX TEMP:  88;

OGALLALA       SUNNY     83  34  17 N6        30.08S
$$

NEZ005>010-023>029-035>040-094-290100-
NORTH CENTRAL NEBRASKA

CITY           SKY/WX    TMP DP  RH WIND       PRES   REMARKS
VALENTINE      SUNNY     81  35  19 W18G30    30.03S
6HR MIN TEMP:  77; 6HR MAX TEMP:  85;

AINSWORTH      SUNNY     81  43  26 NW8       30.04R
BROKEN BOW     SUNNY     84  51  31 NW7       30.03R
6HR MIN TEMP:  79; 6HR MAX TEMP:  86;

O`NEILL        SUNNY     79  52  38 NW7       30.02R
ORD            SUNNY     82  52  35 N6        30.00R
6HR MIN TEMP:  78; 6HR MAX TEMP:  84;

THEDFORD       SUNNY     81  45  27 N7        30.07S
$$

NEZ041-046>049-061>064-073>077-083>087-290100-
SOUTH CENTRAL NEBRASKA

CITY           SKY/WX    TMP DP  RH WIND       PRES   REMARKS
GRAND ISLAND   SUNNY     80  58  46 N10       29.99S
6HR MIN TEMP:  78; 6HR MAX TEMP:  85;

AURORA         CLOUDY    75  61  61 N8        29.98F
HASTINGS       MOSUNNY   80  59  48 N12       29.99S
6HR MIN TEMP:  78; 6HR MAX TEMP:  83;

HEBRON         MOSUNNY   81  68  63 N14G20    29.92S
HOLDREGE       SUNNY     80  57  45 N8        30.01S
KEARNEY *      SUNNY     82  54  36 NE12      30.00S
YORK           MOSUNNY   75  64  69 N9        29.97S
$$

NEZ011>018-030>034-042>045-290100-
NORTHEAST NEBRASKA

CITY           SKY/WX    TMP DP  RH WIND       PRES   REMARKS
NORFOLK        MOSUNNY   81  57  43 N14       29.97R
6HR MIN TEMP:  73; 6HR MAX TEMP:  82; 6HR PCP: TRACE;

ALBION         SUNNY     80  51  37 N9        30.00R
BLAIR          CLOUDY    77  68  73 N14G21    29.91S
COLUMBUS *     CLOUDY    75  59  57 CALM      29.96S
FREMONT        MOSUNNY   78  65  63 NW8       29.93S
TEKAMAH        PTSUNNY   78  68  71 N9        29.91S
6HR MIN TEMP:  78; 6HR MAX TEMP:  84; 6HR PCP:  0.07;

WAYNE          MOSUNNY   78  63  60 NW6       29.97S
$$

NEZ050>053-065>068-078-088>093-290100-
SOUTHEAST NEBRASKA

CITY           SKY/WX    TMP DP  RH WIND       PRES   REMARKS
LINCOLN        MOSUNNY   80  67  64 N17       29.92R
6HR MIN TEMP:  80; 6HR MAX TEMP:  93;

OMAHA EPPLEY   PTSUNNY   79  71  76 N15G22    29.88F
6HR MIN TEMP:  78; 6HR MAX TEMP:  92; 6HR PCP: TRACE;

BEATRICE       MOSUNNY   81  73  77 N17G23    29.88F
FALLS CITY     SUNNY     92  78  63 S9        29.81F HX 107
6HR MIN TEMP:  90; 6HR MAX TEMP:  94;

NEBRASKA CITY  MOSUNNY   83  74  74 N17G25    29.84F HX  90
PLATTSMOUTH    PTSUNNY   79  73  80 NW17G23   29.88S
$$

NEZ044-045-051>053-067-290100-
OMAHA AREA

CITY           SKY/WX    TMP DP  RH WIND       PRES   REMARKS
OMAHA EPPLEY   PTSUNNY   79  71  76 N15G22    29.88F
6HR MIN TEMP:  78; 6HR MAX TEMP:  92; 6HR PCP: TRACE;

BLAIR          CLOUDY    77  68  73 N14G21    29.91S
FREMONT        MOSUNNY   78  65  63 NW8       29.93S
MILLARD        PTSUNNY   80  71  73 N13G20    29.89F
OFFUTT AFB     SUNNY     80  72  77 N9G20     29.87R
PLATTSMOUTH    PTSUNNY   79  73  80 NW17G23   29.88S
WAHOO          FAIR      78  68  69 N14       29.92S
$$



USA.gov is the U.S. government's official web portal to all federal, state and local government web resources and services.